Weather in Chittagong

Bangladesh     22°06′06″N   91°53′58″E
temp.,
°C
wind,
m/s
gust,
m/s
humid.,
%
clouds,
%
prec.,
mm/h
press.,
hPa
HPBL,
m
20 january, thu
thu2000:00+13e22910 0.0 101216
03:00+13ene22936 0.0 101215
06:00+12e22942 0.0 101217
09:00+20ese11610 0.0 1014353
12:00+25wsw32430 0.0 10121362
15:00+23w55530 0.0 1010741
18:00+17w22840 0.0 101017
21:00+15e22911 0.0 101214
21 january, fri
fri2100:00+14ene229447 0.0 101216
03:00+13ne22925 0.0 101115
06:00+12ene22920 0.0 101223
09:00+20ne11554 0.0 1014288
12:00+26wnw43341 0.0 10131431
15:00+24wnw44400 0.0 1011886
18:00+17nw22665 0.0 101111
21:00+15ene11670 0.0 101311
22 january, sat
sat2200:00+13ene22713 0.0 101216
03:00+13ne226883 0.0 101122
06:00+12ene22692 0.0 101220
09:00+21ne12430 0.0 1013283
12:00+27wnw33263 0.0 10121984
15:00+26wnw44290 0.0 10091400
18:00+18wnw33554 0.0 101035
21:00+15ene22645 0.0 101215
23 january, sun
sun2300:00+14ene22610 0.0 101215
03:00+13ene22590 0.0 101116
06:00+13ene22610 0.0 101118
09:00+21nne23370 0.0 1013275
12:00+28nnw23240 0.0 10111814
15:00+27wnw54310 0.0 10091192
18:00+19nw34600 0.0 101043
21:00+17nne22613 0.0 101211
24 january, mon
mon2400:00+15e226388 0.0 101213
03:00+17ne225488 0.0 101132
06:00+15ene226440 0.0 101111
09:00+23n114480 0.0 1013317
12:00+24wnw3347100 0.0 1012536
15:00+23n344897 0.0 1010421
18:00+20n3554100 0.0 1011151
21:00+19nne3554100 0.0 1012108